This demonstration page uses our WeatherBlox Daily Observations layout. Learn more.

Left ArrowRight Arrow

Hourly Observations for December 28, 2019

Temp ( °F °C ) Dew Point ( °F °C ) Humidity (%) Winds ( mph kmh ) Pressure ( in mb ) Visibility ( mi km ) Precip ( " mm )
12:51 am 00:51 Mostly Cloudy 37 2.8 36 2.2 96 96 W 6 9 29.86 1011 10 16 N/A
1:51 am 01:51 Cloudy 39 3.9 37 2.8 93 93 N N/A 29.87 1011 10 16 N/A
1:55 am 01:55 Cloudy 39 3.9 37 2.8 93 93 N N/A 29.96 1015 10 16 N/A
2:03 am 02:03 Cloudy 38 3.3 37 2.8 97 97 N N/A 29.97 1015 10 16 N/A
2:17 am 02:17 Cloudy 38 3.3 37 2.8 97 97 N N/A 29.97 1015 9 14 N/A
2:51 am 02:51 Cloudy with Light Rain 38 3.3 37 2.8 97 97 N N/A 29.88 1012 10 16 0.00 0.00
3:48 am 03:48 Cloudy with Light Rain 39 4 37 3 93 93 NE 3 6 29.96 1014 7 11 N/A
3:51 am 03:51 Cloudy with Light Rain 39 3.9 37 2.8 93 93 NE 3 6 29.87 1012 8 13 0.01 0.25
4:16 am 04:16 Cloudy 39 3.9 38 3.3 96 96 N 3 6 29.96 1015 10 16 0.00 0.00
4:27 am 04:27 Cloudy 38 3.3 38 3.3 100 100 N N/A 29.97 1015 10 16 0.00 0.00
4:51 am 04:51 Cloudy 39 3.9 37 2.8 93 93 N N/A 29.88 1012 10 16 0.00 0.00
5:51 am 05:51 Mostly Clear 37 2.8 36 2.2 96 96 SE 5 7 29.88 1012 10 16 N/A
6:51 am 06:51 Cloudy 37 2.8 36 2.2 96 96 E 6 9 29.90 1012 10 16 N/A
7:51 am 07:51 Cloudy 38 3.3 37 2.8 97 97 N N/A 29.90 1013 10 16 N/A
8:15 am 08:15 Cloudy with Light Rain 38 3.3 37 2.8 97 97 N N/A 29.99 1015 9 14 0.01 0.25
8:34 am 08:34 Cloudy with Light Rain 39 4 37 3 93 93 ENE 3 6 29.99 1015 10 16 N/A
8:51 am 08:51 Cloudy 39 3.9 38 3.3 96 96 N N/A 29.92 1013 10 16 0.03 0.76
9:51 am 09:51 Cloudy 40 4.4 37 2.8 89 89 N N/A 29.92 1013 10 16 0.00 0.00
10:17 am 10:17 Cloudy 42 5.6 37 2.8 82 82 N N/A 29.97 1015 10 16 N/A
10:51 am 10:51 Cloudy 43 6.1 37 2.8 80 80 N N/A 29.91 1013 10 16 N/A
11:18 am 11:18 Cloudy 44 6.7 37 2.8 76 76 VRB 6 9 29.92 1013 10 16 N/A
11:31 am 11:31 Cloudy 46 7.8 36 2.2 68 68 WNW 18 30 29.90 1013 10 16 N/A
11:51 am 11:51 Cloudy 46 7.8 34 1.1 63 63 W 20 31 29.86 1011 10 16 N/A
12:51 pm 12:51 Cloudy 42 5.6 34 1.1 73 73 NW 13 20 29.85 1011 10 16 N/A
1:51 pm 13:51 Mostly Cloudy with Light Rain 42 5.6 32 undefined 68 68 W 21 33 29.83 1010 10 16 0.00 0.00
2:51 pm 14:51 Cloudy 43 6.1 34 1.1 71 71 NNW 20 31 29.83 1010 10 16 0.00 0.00
3:51 pm 15:51 Cloudy 40 4.4 30 -1.1 68 68 W 25 41 29.86 1011 10 16 N/A
4:51 pm 16:51 Cloudy 41 5 30 -1.1 65 65 W 23 37 29.88 1012 10 16 N/A
5:51 pm 17:51 Cloudy 38 3.3 31 -0.6 76 76 WNW 10 17 29.90 1013 10 16 N/A
6:51 pm 18:51 Cloudy 38 3.3 29 -1.7 70 70 NW 24 39 29.93 1013 10 16 N/A
7:34 pm 19:34 Windy with Snow Likely 35 1.7 32 undefined 89 89 NW 22 35 30.04 1017 9 14 0.00 0.00
7:51 pm 19:51 Windy with Snow Likely 34 1.1 32 undefined 92 92 NW 21 33 29.97 1015 4 6 0.00 0.00
7:58 pm 19:58 Cloudy with Light Snow 33 0.6 32 undefined 96 96 WNW 18 30 30.07 1018 2 3 0.00 0.00
8:11 pm 20:11 Cloudy with Light Snow 33 0.6 32 undefined 96 96 WNW 15 24 30.07 1018 2 2 0.01 0.25
8:16 pm 20:16 Cloudy with Light Snow 33 0.6 32 undefined 96 96 WNW 14 22 30.07 1018 3 5 0.01 0.25
8:34 pm 20:34 Cloudy with Light Snow 33 0.6 32 undefined 96 96 WNW 14 22 30.08 1019 7 11 0.01 0.25
8:42 pm 20:42 Cloudy with Light Snow 33 0.6 32 undefined 96 96 W 12 19 30.08 1019 9 14 0.01 0.25
8:51 pm 20:51 Cloudy 33 0.6 32 undefined 96 96 WNW 10 17 29.99 1016 9 14 0.01 0.25
9:03 pm 21:03 Cloudy 33 0.6 33 0.6 100 100 WNW 10 17 30.09 1019 10 16 N/A
9:51 pm 21:51 Cloudy 33 0.6 33 0.6 100 100 NNW 10 17 30.01 1016 10 16 N/A
10:51 pm 22:51 Mostly Clear 33 0.6 30 -1.1 89 89 N 6 9 30.01 1016 10 16 N/A
11:51 pm 23:51 Clear 33 0.6 29 -1.7 85 85 NNW 5 7 30.02 1017 10 16 N/A

Powered by AerisWeather